KE0YON Weather Reports


Display with metric or nautical units.
time (UTC)temp
F
wind
direction
speed
MPH
gust
MPH
rain 1hr
in
rain 24hr
in
rain mn
in
humidity
%
barometer
mb
20260507040016 35 212 1.0 2.0 0.00 0.19 0.17 86 1020.3
20260507034524 35 209 1.0 3.0 0.00 0.20 0.17 86 1020.3
20260507033030 36 169 2.0 4.0 0.00 0.20 0.17 86 1020.4
20260507031530 36 175 2.0 4.0 0.00 0.21 0.17 86 1020.4
20260507030034 36 203 2.0 4.0 0.00 0.21 0.17 85 1020.3
20260507024518 36 190 2.0 4.0 0.00 0.22 0.17 84 1020.2
20260507023020 37 138 3.0 5.0 0.00 0.22 0.17 82 1020.2
20260507021540 38 150 4.0 5.0 0.00 0.22 0.17 78 1020.2
20260507020027 39 199 2.0 4.0 0.00 0.22 0.17 77 1020.2
20260507014525 40 191 3.0 5.0 0.00 0.22 0.17 74 1020.2
20260507013016 40 153 4.0 9.0 0.00 0.22 0.17 74 1020.2
20260507011528 41 141 5.0 11.0 0.00 0.22 0.17 73 1019.9
20260507010034 44 217 4.0 8.0 0.00 0.23 0.17 68 1019.9
20260507004526 41 200 4.0 7.0 0.00 0.23 0.17 72 1020.0
20260507003029 41 225 4.0 7.0 0.00 0.24 0.17 74 1019.9
20260507001522 41 211 4.0 9.0 0.00 0.25 0.17 76 1020.2
20260507000022 42 212 5.0 11.0 0.00 0.30 0.17 73 1020.1
20260506234524 44 209 4.0 8.0 0.00 0.33 0.17 70 1019.7
20260506233026 44 221 5.0 8.0 0.00 0.34 0.17 75 1020.0
20260506231529 42 226 4.0 7.0 0.00 0.35 0.17 76 1020.1
20260506230025 40 242 5.0 8.0 0.00 0.35 0.17 80 1020.0
20260506224526 39 222 5.0 9.0 0.00 0.35 0.17 85 1020.0
20260506223023 38 215 6.0 9.0 0.00 0.35 0.17 87 1020.0
20260506221526 37 250 5.0 10.0 0.00 0.35 0.17 88 1020.0
20260506220023 38 219 4.0 7.0 0.00 0.35 0.17 87 1020.0
20260506214520 38 117 3.0 8.0 0.00 0.35 0.17 87 1020.0
20260506213029 38 136 5.0 7.0 0.01 0.35 0.17 84 1020.0
20260506211528 39 129 2.0 6.0 0.01 0.35 0.17 84 1019.9
20260506210013 37 139 1.0 5.0 0.01 0.35 0.17 85 1019.8
20260506204528 36 91 2.0 16.0 0.01 0.35 0.17 87 1019.7
20260506203028 37 52 14.0 20.0 0.00 0.34 0.16 86 1020.0
20260506201532 39 140 3.0 7.0 0.00 0.34 0.16 88 1020.0
20260506200028 37 79 6.0 12.0 0.00 0.34 0.16 91 1020.0
20260506194514 36 68 7.0 12.0 0.01 0.34 0.16 93 1019.9
20260506193020 35 76 8.0 13.0 0.02 0.34 0.16 94 1020.0
20260506191526 34 65 11.0 14.0 0.02 0.34 0.16 95 1019.9
20260506190028 34 56 9.0 13.0 0.02 0.34 0.16 95 1019.8
20260506184527 33 41 6.0 10.0 0.02 0.33 0.15 95 1020.1
20260506183018 33 29 7.0 13.0 0.01 0.32 0.14 95 1020.1
20260506181527 32 21 7.0 9.0 0.01 0.32 0.14 94 1020.2
20260506180027 32 54 6.0 8.0 0.01 0.32 0.14 94 1020.0
20260506174528 33 38 8.0 14.0 0.01 0.31 0.13 94 1020.1
20260506173028 34 13 9.0 14.0 0.01 0.31 0.13 94 1020.2
20260506171532 34 28 10.0 18.0 0.01 0.31 0.13 94 1019.9
20260506170024 33 52 13.0 18.0 0.02 0.31 0.13 94 1019.7
20260506163027 33 68 12.0 19.0 0.03 0.30 0.12 95 1019.2
20260506161537 33 71 11.0 16.0 0.03 0.30 0.12 95 1018.9
20260506160034 33 58 11.0 14.0 0.02 0.29 0.11 95 1019.1
20260506151534 32 27 5.0 8.0 0.00 0.27 0.09 94 1018.5
20260506150031 32 34 7.0 12.0 0.00 0.27 0.09 94 1018.6
20260506140033 32 27 7.0 12.0 0.00 0.27 0.09 94 1018.4
20260506134528 32 26 11.0 14.0 0.00 0.27 0.09 93 1018.0
20260506133024 32 24 11.0 18.0 0.00 0.27 0.09 93 1018.0
20260506131528 32 44 12.0 16.0 0.00 0.27 0.09 93 1017.7
20260506130013 32 20 12.0 16.0 0.00 0.27 0.09 93 1017.3
20260506124517 32 34 12.0 15.0 0.01 0.27 0.09 93 1017.1
20260506123020 32 34 12.0 16.0 0.01 0.27 0.09 93 1016.9
20260506121526 32 41 14.0 19.0 0.01 0.27 0.09 92 1016.6
20260506120011 32 26 12.0 16.0 0.01 0.27 0.09 92 1016.6
20260506111522 33 46 14.0 19.0 0.00 0.26 0.08 90 1015.8
20260506110025 33 32 14.0 19.0 0.00 0.26 0.08 91 1015.8
20260506103018 34 27 14.0 21.0 0.00 0.26 0.08 91 1015.6
20260506100021 35 31 17.0 24.0 0.00 0.26 0.08 88 1015.4
20260506094528 35 39 15.0 21.0 0.00 0.26 0.08 87 1015.2
20260506093024 35 36 10.0 13.0 0.00 0.26 0.08 90 1015.4
20260506091520 35 34 8.0 12.0 0.00 0.26 0.08 91 1015.5
20260506084527 35 16 9.0 14.0 0.00 0.26 0.08 92 1015.4
20260506083024 35 11 8.0 11.0 0.01 0.26 0.08 93 1015.4
20260506081524 34 49 5.0 9.0 0.01 0.26 0.08 93 1015.4
20260506073025 35 24 3.0 4.0 0.05 0.25 0.07 93 1015.6
20260506071528 35 22 2.0 5.0 0.07 0.25 0.07 92 1015.6
20260506061508 36 92 1.0 3.0 0.01 0.18 0.00 93 1015.2
20260506044516 36 72 4.0 5.0 0.02 0.17 0.17 92 1015.0
20260506043015 36 79 2.0 4.0 0.02 0.17 0.17 92 1015.0
20260506041525 36 96 4.0 5.0 0.02 0.16 0.16 92 1014.9